Weather History for Port Weller, ON

Change the Weather History Date:

Friday, July 12, 2013

  Actual Average Record
Temperature  
Mean Temperature 69 °F -  
Max Temperature 72 °F - - ()
Min Temperature 66 °F - - ()
Cooling Degree Days 4    
Growing Degree Days 19 (Base 50)    
Moisture  
Dew Point 63 °F    
Average Humidity 78    
Maximum Humidity 87    
Minimum Humidity 68    
Precipitation  
Precipitation 0.00 in - - ()
Sea Level Pressure  
Sea Level Pressure 30.12 in    
Wind  
Wind Speed 11 mph ()    
Max Wind Speed 29 mph    
Max Gust Speed -    
T = Trace of Precipitation, MM = Missing Value Source: Averaged Metar Reports

Daily Weather History Graph

Daily Weather History Graph

Search for Another Location

Airport:

Trip Planner

Search our weather history database for the weather conditions in past years. The results will help you decide how hot, cold, wet, or windy it might be!

Date:

Astronomy

Jul. 12, 2013 Rise Set
Actual Time 5:48 AM EDT 8:56 PM EDT
Civil Twilight 5:13 AM EDT 9:30 PM EDT
Nautical Twilight 4:29 AM EDT 10:15 PM EDT
Astronomical Twilight 3:35 AM EDT 11:08 PM EDT
Moon 10:11 AM EDT (7/12) 10:56 PM EDT (7/12)
Length of Visible Light 16h 17m
Length of Day
15h 08m
Waxing Crescent, 17% of the Moon is Illuminated
Jul 12
Waxing Crescent
Jul 15
First Quarter
Jul 22
Full
Jul 29
Last Quarter
Aug 6
New

Hourly Weather History & Observations

Time (EDT) Temp. Dew Point Humidity Pressure Visibility Wind Dir Wind Speed Gust Speed Precip Events Conditions
12:00 AM 68.7 °F 60.6 °F 75% 30.02 in - East 15.0 mph - N/A   Unknown
1:00 AM 67.8 °F 60.3 °F 77% 30.04 in - NNW 12.7 mph - N/A   Unknown
2:00 AM 68 °F 60 °F 70% 30.04 in - North 9.2 mph - -  
2:00 AM 68.2 °F 60.4 °F 76% 30.04 in - North 9.2 mph - N/A   Unknown
3:00 AM 69.6 °F 62.6 °F 78% 30.04 in - NE 12.7 mph - N/A   Unknown
4:00 AM 70.3 °F 65.8 °F 86% 30.05 in - ENE 17.3 mph - N/A   Unknown
5:00 AM 69 °F 64 °F 79% 30.06 in - East 10.4 mph - -  
5:00 AM 68.5 °F 64.0 °F 85% 30.06 in - East 10.4 mph - N/A   Unknown
6:00 AM 66.6 °F 62.6 °F 87% 30.09 in - NE 6.9 mph - N/A   Unknown
7:00 AM 67.6 °F 61.9 °F 82% 30.10 in - NNE 8.1 mph - N/A   Unknown
8:00 AM 70 °F 62 °F 68% 30.13 in - NNE 20.1 mph - -  
8:00 AM 69.6 °F 61.7 °F 76% 30.13 in - NNE 10.4 mph - N/A   Unknown
9:00 AM 70.0 °F 63.0 °F 78% 30.14 in - NNE 11.5 mph - N/A   Unknown
10:00 AM 71.8 °F 64.6 °F 78% 30.14 in - NNE 9.2 mph - N/A   Unknown
11:00 AM 71 °F 64 °F 74% 30.14 in - NNE 29.1 mph - -  
11:00 AM 70.7 °F 64.4 °F 80% 30.14 in - NNE 15.0 mph - N/A   Unknown
12:00 PM 70.3 °F 64.0 °F 80% 30.15 in - North 15.0 mph - N/A   Unknown
1:00 PM 70.0 °F 63.5 °F 80% 30.15 in - NNE 15.0 mph - N/A   Unknown
2:00 PM 70.0 °F 63.9 °F 81% 30.16 in - NNE 13.8 mph - N/A   Unknown
3:00 PM 70.5 °F 64.8 °F 82% 30.16 in - NNE 11.5 mph - N/A   Unknown
4:00 PM 70.3 °F 64.2 °F 81% 30.14 in - NNE 10.4 mph - N/A   Unknown
5:00 PM 71 °F 64 °F 73% 30.13 in - NNE 24.6 mph - -  
5:00 PM 71.1 °F 64.2 °F 79% 30.13 in - NNE 12.7 mph - N/A   Unknown
6:00 PM 71.2 °F 65.1 °F 81% 30.13 in - NNE 12.7 mph - N/A   Unknown
7:00 PM 71.6 °F 64.9 °F 79% 30.13 in - NNE 10.4 mph - N/A   Unknown
8:00 PM 72 °F 65 °F 74% 30.14 in - NNE 9.2 mph - -  
8:00 PM 72.0 °F 65.5 °F 80% 30.14 in - NNE 9.2 mph - N/A   Unknown
9:00 PM 72.0 °F 63.3 °F 74% 30.14 in - NNE 6.9 mph - N/A   Unknown
10:00 PM 71.2 °F 61.9 °F 72% 30.17 in - NNE 5.8 mph - N/A   Unknown
11:00 PM 70 °F 62 °F 70% 30.17 in - NE 11.2 mph - -  
11:00 PM 70.0 °F 62.2 °F 76% 30.17 in - NE 5.8 mph - N/A   Unknown